DATI METEO

IERI
Time Temp. P.to rug.. Umid. Direzion Velocità d Wind gust Press. 1h Prec. 24h Prec.
00:05 14.7 13.1 90 266 4.2 7.5 1001.3 0.0000 0.0000
00:15 14.6 13.1 91 266 2.8 6.4 1000.9 0.0000 0.0000
00:25 14.6 13.1 91 266 3.3 5.8 1001.1 0.0000 0.0000
00:36 14.5 13 91 270 3.3 5 1001.2 0.0000 0.0000
00:45 14.6 13.1 91 270 3.9 6.9 1001 0.0000 0.0000
00:55 14.6 13.1 91 266 3.6 5.6 1001.1 0.0000 0.0000
01:06 14.5 13 91 270 3.6 5.6 1001.2 0.0000 0.0000
01:16 14.5 13 91 270 3.6 6.1 1001.3 0.0000 0.0000
01:25 14.5 13 91 270 3.3 6.1 1001.3 0.0000 0.0000
01:36 14.4 12.8 90 265 3.3 5.8 1001.3 0.0000 0.0000
01:46 14.4 12.8 90 270 3.6 5.6 1001.4 0.0000 0.0000
01:56 14.3 12.7 90 267 3.6 6.1 1001.4 0.0000 0.0000
02:06 14.3 12.5 89 266 4.4 6.9 1001.5 0.0000 0.0000
02:16 14.4 12.3 87 266 3.9 7.8 1001.5 0.0000 0.0000
02:26 14.4 12.1 86 270 4.2 7.5 1001.7 0.0000 0.0000
02:36 14.3 12 86 270 3.9 6.4 1001.8 0.0000 0.0000
02:46 14.2 11.9 86 270 3.6 5.6 1002 0.0000 0.0000
02:56 14.1 11.8 86 270 3.3 6.4 1002 0.0000 0.0000
03:06 13.9 11.6 86 274 3.6 6.9 1002.3 0.0000 0.0000
03:16 13.7 11.4 86 270 2.5 5.8 1002.4 0.0000 0.0000
03:27 13.6 11.5 87 273 2.8 4.7 1002.5 0.0000 0.0000
03:37 13.4 11.3 87 270 2.8 6.1 1002.6 0.0000 0.0000
03:46 13.2 11.3 88 270 2.5 4.4 1002.7 0.0000 0.0000
03:57 12.9 11 88 278 2.2 4.4 1002.8 0.0000 0.0000
04:07 12.7 10.9 89 270 1.9 3.6 1003 0.0000 0.0000
04:17 12.5 10.7 89 270 2.2 4.4 1003.1 0.0000 0.0000
04:26 12.4 10.6 89 274 2.2 4.4 1003.2 0.0000 0.0000
04:37 12.2 10.4 89 270 1.9 3.3 1003.3 0.0000 0.0000
04:47 12.1 10.5 90 274 2.2 3.6 1003.5 0.0000 0.0000
04:57 11.9 10.3 90 270 1.9 3.6 1003.6 0.0000 0.0000
05:07 11.8 10.4 91 275 1.9 3.6 1003.7 0.0000 0.0000
05:17 11.7 10.1 90 278 1.7 2.8 1003.9 0.0000 0.0000
05:27 11.6 10.2 91 270 1.9 3.3 1004 0.0000 0.0000
05:37 11.5 10.1 91 270 1.9 3.3 1004.3 0.0000 0.0000
05:48 11.3 9.9 91 270 1.4 2.2 1004.5 0.0000 0.0000
05:57 11.1 9.7 91 270 0.8 1.9 1004.7 0.0000 0.0000
06:07 10.9 9.7 92 270 1.4 2.8 1004.7 0.0000 0.0000
06:18 10.7 9.6 93 270 1.7 2.8 1004.9 0.0000 0.0000
06:28 10.7 9.8 94 270 1.9 3.9 1004.9 0.0000 0.0000
06:38 10.8 10 95 270 2.2 4.2 1005.2 0.0000 0.0000
06:47 10.9 10.1 95 270 2.2 3.6 1005.2 0.0000 0.0000
06:58 10.9 10 94 270 1.9 3.9 1005.2 0.0000 0.0000
07:08 10.8 9.9 94 270 1.9 3.6 1005.3 0.0000 0.0000
07:18 10.7 9.8 94 270 1.7 2.8 1005.6 0.0000 0.0000
07:28 10.7 9.9 95 275 1.7 2.8 1005.7 0.0000 0.0000
07:38 10.8 10 95 270 1.9 3.3 1006 0.0000 0.0000
07:48 10.9 10.1 95 275 1.9 3.3 1006.2 0.0000 0.0000
07:58 11.2 10.4 95 270 1.9 3.3 1006.2 0.0000 0.0000
08:09 11.4 10.5 94 276 2.2 3.6 1006.5 0.0000 0.0000
08:18 11.6 10.5 93 270 1.9 4.2 1006.7 0.0000 0.0000
08:28 12 10.7 92 274 2.2 3.9 1006.7 0.0000 0.0000
08:38 12.4 10.8 90 274 2.2 4.7 1006.9 0.0000 0.0000
08:49 12.7 10.8 88 270 2.2 3.9 1007.2 0.0000 0.0000
08:58 12.9 10.8 87 270 2.5 4.4 1007.3 0.0000 0.0000
09:08 13.1 10.8 86 274 2.2 4.7 1007.2 0.0000 0.0000
09:19 13.3 10.8 85 277 2.2 4.4 1007.6 0.0000 0.0000
09:29 13.5 10.9 84 267 2.8 5 1007.7 0.0000 0.0000
09:39 13.8 10.8 82 270 2.8 5.6 1008.1 0.0000 0.0000
09:49 13.9 10.7 81 275 2.5 6.7 1008.2 0.0000 0.0000
09:59 14.2 10.6 79 275 2.5 4.4 1008.3 0.0000 0.0000
10:09 14.4 10.6 78 279 1.9 4.2 1008.5 0.0000 0.0000
10:19 14.5 10.3 76 275 2.2 4.2 1008.8 0.0000 0.0000
10:30 14.5 10.1 75 278 2.2 5.8 1008.9 0.0000 0.0000
10:38 14.7 10.1 74 285 2.2 7.5 1009.2 0.0000 0.0000
10:48 14.7 10.1 74 274 2.2 5 1009.2 0.0000 0.0000
10:59 14.9 10.3 74 288 1.9 5 1009.1 0.0000 0.0000
11:08 15.1 10.1 72 276 2.5 6.1 1009.5 0.0000 0.0000
11:18 15.2 10.2 72 284 1.9 4.4 1009.5 0.0000 0.0000
11:29 15.3 10.1 71 280 1.9 3.9 1009.7 0.0000 0.0000
11:39 15.5 10.1 70 277 1.7 3.9 1009.8 0.0000 0.0000
11:49 15.9 10.4 70 263 2.8 5 1010 0.0000 0.0000
11:58 16 10.3 69 270 2.8 6.4 1010.1 0.0000 0.0000
12:09 16.1 10.6 70 270 2.5 4.4 1010.1 0.0000 0.0000
12:19 16.3 10.4 68 270 2.5 4.4 1010.3 0.0000 0.0000
12:29 16.4 10.3 67 270 1.9 4.2 1010.4 0.0000 0.0000
12:39 16.5 10.1 66 277 2.2 5 1010.4 0.0000 0.0000
12:49 16.7 10.1 65 263 2.2 5.8 1010.6 0.0000 0.0000
12:59 16.8 10.2 65 276 1.9 3.9 1010.9 0.0000 0.0000
13:09 16.8 9.7 63 270 2.5 5 1011 0.0000 0.0000
13:20 16.8 9.5 62 267 2.8 5.6 1011.2 0.0000 0.0000
13:29 16.8 9.7 63 277 2.5 4.7 1011.3 0.0000 0.0000
13:39 17.1 10.2 64 266 3.6 5.8 1011.3 0.0000 0.0000
13:50 17.1 10 63 266 3.3 5.6 1011.6 0.0000 0.0000
14:00 17.3 10.2 63 261 2.5 5 1011.7 0.0000 0.0000
14:10 17.4 10.3 63 270 3.3 6.1 1011.7 0.0000 0.0000
14:19 17.4 10.3 63 270 2.2 4.2 1011.9 0.0000 0.0000
14:30 17.4 9.8 61 270 2.5 5 1012.3 0.0000 0.0000
14:40 17.5 9.9 61 264 1.7 3.9 1012.2 0.0000 0.0000
14:50 17.4 9.3 59 270 2.5 4.7 1012.5 0.0000 0.0000
15:00 17.5 9.9 61 264 2.5 5 1012.8 0.0000 0.0000
15:10 17.7 9.6 59 266 2.8 6.7 1013.1 0.0000 0.0000
15:20 17.5 9.7 60 273 3.3 5.6 1013.3 0.0000 0.0000
15:30 17.5 9.2 58 270 1.9 4.4 1013.4 0.0000 0.0000
15:41 17.4 8.8 57 270 2.8 6.1 1013.4 0.0000 0.0000
15:51 17.2 8.6 57 274 2.2 5 1013.5 0.0000 0.0000
16:00 17.1 8.8 58 289 1.7 4.7 1013.8 0.0000 0.0000
16:11 17.1 9 59 270 2.5 5 1014.1 0.0000 0.0000
16:21 17.1 9.3 60 270 2.2 5 1013.9 0.0000 0.0000
16:31 17 9.2 60 278 1.7 3.9 1014.3 0.0000 0.0000
16:40 17 9.2 60 267 2.8 4.7 1014.4 0.0000 0.0000
16:51 16.9 9.1 60 277 2.2 4.7 1014.4 0.0000 0.0000
17:01 16.8 9 60 277 1.9 4.2 1014.6 0.0000 0.0000
17:11 16.8 9.2 61 276 1.7 2.8 1014.6 0.0000 0.0000
17:21 16.6 8.6 59 292 1.7 3.6 1015 0.0000 0.0000
17:31 16.4 8.4 59 276 1.9 4.4 1015.2 0.0000 0.0000
17:41 16.2 8.4 60 270 1.9 3.9 1015.5 0.0000 0.0000
17:51 16 8.7 62 276 1.4 2.5 1015.6 0.0000 0.0000
18:02 15.6 8.4 62 285 1.4 2.2 1015.7 0.0000 0.0000
18:11 15.1 8.1 63 283 0.8 3.9 1015.9 0.0000 0.0000
18:21 14.6 7.9 64 270 0.8 2.2 1015.9 0.0000 0.0000
18:31 14.3 7.8 65 270 1.4 2.2 1016.2 0.0000 0.0000
18:42 13.8 7.6 66 285 1.4 2.2 1016.4 0.0000 0.0000
18:52 13.6 7.6 67 282 1.4 2.8 1016.3 0.0000 0.0000
19:01 13.3 7.3 67 286 0.8 2.5 1016.5 0.0000 0.0000
19:12 13 7.2 68 280 0.8 1.9 1016.9 0.0000 0.0000
19:22 12.7 7.2 69 286 0.8 1.7 1016.9 0.0000 0.0000
19:32 12.5 7.2 70 270 0.8 1.7 1017.2 0.0000 0.0000
19:42 12.2 7.1 71 270 0.3 0.8 1017.4 0.0000 0.0000
19:52 11.7 6.8 72 0 0.6 1017.6 0.0000 0.0000
20:02 11 6.6 74 237 0.3 0.6 1017.6 0.0000 0.0000
20:12 10.5 6.3 75 270 0.3 0.8 1017.7 0.0000 0.0000
20:23 10.2 6.5 78 270 0.3 0.8 1017.9 0.0000 0.0000
20:33 10.2 6.5 78 270 0.3 0.8 1018 0.0000 0.0000
20:42 9.8 6.2 78 270 0.3 0.8 1018.3 0.0000 0.0000
20:52 9.2 5.8 79 270 0.3 0.6 1018.4 0.0000 0.0000
21:03 8.6 5.5 81 270 0.3 0.8 1018.5 0.0000 0.0000
21:13 8.4 5.9 84 270 0.8 1.7 1018.5 0.0000 0.0000
21:22 8.5 6 84 270 0.3 0.8 1018.7 0.0000 0.0000
21:33 8.7 6.3 85 270 0.8 1.7 1018.8 0.0000 0.0000
21:43 9.1 6.7 85 252 0.6 0.8 1019.1 0.0000 0.0000
21:53 9.1 6.4 83 270 0.3 0.8 1019.2 0.0000 0.0000
22:03 8.6 5.9 83 0 0.3 1019.3 0.0000 0.0000
22:13 8.1 5.6 84 270 0.3 0.6 1019.4 0.0000 0.0000
22:23 7.6 5.2 85 0 0.6 1019.6 0.0000 0.0000
22:33 7.3 5.1 86 270 0.3 0.6 1019.6 0.0000 0.0000
22:44 6.7 4.5 86 310 0.3 0.8 1019.6 0.0000 0.0000
22:53 6.5 4.7 88 270 0.6 0.8 1019.8 0.0000 0.0000
23:03 6.2 4.5 89 270 0.3 0.6 1019.8 0.0000 0.0000
23:13 6 4.5 90 270 0.3 0.6 1020.1 0.0000 0.0000
23:24 5.8 4.4 91 270 0.3 0.6 1020.2 0.0000 0.0000
23:34 5.8 4.6 92 270 0.3 0.6 1020.3 0.0000 0.0000
23:43 5.6 4.4 92 270 0.3 0.6 1020.4 0.0000 0.0000
23:54 5.4 4.2 92 270 0.3 0.6 1020.6 0.0000

STATISTICHE GIORNALIERE

2021-09-25
TEMPERATURA
MEDIA
13.3
MASSIMA
17.7
15:10
MINIMA
5.4
23:54
PRESSIONE
MEDIA
1010.2
MASSIMA
1020.6
23:54
MINIMA
1000.9
00:15
PUNTO DI RUGIADA
MEDIA
9.4
MASSIMA
13.1
00:05
MINIMA
4.2
23:54
UMIDITÀ
MEDIA
79
MASSIMA
95
06:38
MINIMA
57
15:41
VELOCITÀ DEL VENTO
MEDIA
2.0
MASSIMA
4.4
02:06
WIND GUST
MEDIA
3.9
MASSIMA
7.8
02:16
DIREZIONE DEL VENTO
PREVALENTE
O
96.5%
N
0.0
NE
0.0
E
0.0
SE
0.0
S
0.0
SO
0.7
O
96.5
NO
0.7
PRECIPITAZIONI
ORA DI PIOGGIA
0.0
GIORNO DI PIOGGIA
0.0
TEMPERATURA (°C)
MINIMA
5.4
MASSIMA
17.7
MEDIA
13.3
PRESSIONE (hpa)
MINIMA
1000.9
MASSIMA
1020.6
MEDIA
1010.2
DEVICE